H1 CPF 2 NER 2021 11 7 9 311 01 glonass140 H2 1903001 9140 44299 2021 11 7 0 0 0 2021 11 10 23 45 0 900 1 1 0 0 0 1 H9 10 0 59525 0.00000 0 23796845.439 8857505.062 2583528.857 10 0 59525 900.00000 0 23957781.707 8768017.381 -620867.872 10 0 59525 1800.00000 0 23736149.592 8549902.568 -3813211.467 10 0 59525 2700.00000 0 23121755.808 8257344.836 -6931532.603 10 0 59525 3600.00000 0 22117583.758 7946132.537 -9915245.586 10 0 59525 4500.00000 0 20739803.094 7671083.341 -12706327.881 10 0 59525 5400.00000 0 19017243.034 7483515.984 -15250453.271 10 0 59525 6300.00000 0 16990349.712 7428876.223 -17498056.138 10 0 59525 7200.00000 0 14709669.610 7544618.437 -19405305.375 10 0 59525 8100.00000 0 12233921.135 7858433.755 -20934968.338 10 0 59525 9000.00000 0 9627733.885 8386901.189 -22057147.283 10 0 59525 9900.00000 0 6959149.408 9134620.385 -22749873.145 10 0 59525 10800.00000 0 4296987.352 10093864.365 -22999544.447 10 0 59525 11700.00000 0 1708186.782 11244768.572 -22801202.052 10 0 59525 12600.00000 0 -744766.276 12556049.687 -22158633.762 10 0 59525 13500.00000 0 -3006217.607 13986225.151 -21084306.145 10 0 59525 14400.00000 0 -5029430.488 15485282.824 -19599124.414 10 0 59525 15300.00000 0 -6778291.104 16996730.852 -17732024.697 10 0 59525 16200.00000 0 -8228562.685 18459941.365 -15519406.534 10 0 59525 17100.00000 0 -9368636.525 19812688.905 -13004416.714 10 0 59525 18000.00000 0 -10199749.328 20993775.828 -10236098.889 10 0 59525 18900.00000 0 -10735659.319 21945633.142 -7268426.224 10 0 59525 19800.00000 0 -11001796.552 22616786.204 -4159236.890 10 0 59525 20700.00000 0 -11033925.406 22964080.420 -969094.430 10 0 59525 21600.00000 0 -10876378.010 22954572.542 2239903.505 10 0 59525 22500.00000 0 -10579935.580 22567007.618 5405343.585 10 0 59525 23400.00000 0 -10199449.329 21792819.483 8465717.404 10 0 59525 24300.00000 0 -9791303.374 20636613.240 11361619.706 10 0 59525 25200.00000 0 -9410828.215 19116110.249 14036900.478 10 0 59525 26100.00000 0 -9109774.850 17261558.899 16439748.475 10 0 59525 27000.00000 0 -8933956.354 15114636.849 18523685.690 10 0 59525 27900.00000 0 -8921156.074 12726891.371 20248454.475 10 0 59525 28800.00000 0 -9099389.808 10157783.429 21580781.388 10 0 59525 29700.00000 0 -9485594.094 7472416.936 22495004.631 10 0 59525 30600.00000 0 -10084794.686 4739047.088 22973554.551 10 0 59525 31500.00000 0 -10889789.236 2026470.278 23007279.504 10 0 59525 32400.00000 0 -11881356.861 -598597.685 22595612.096 10 0 59525 33300.00000 0 -13028985.715 -3074048.244 21746573.553 10 0 59525 34200.00000 0 -14292088.381 -5344708.920 20476616.605 10 0 59525 35100.00000 0 -15621655.031 -7364379.912 18810309.963 10 0 59525 36000.00000 0 -16962276.348 -9097495.965 16779869.950 10 0 59525 36900.00000 0 -18254452.913 -10520346.160 14424547.534 10 0 59525 37800.00000 0 -19437095.853 -11621802.271 11789881.399 10 0 59525 38700.00000 0 -20450115.315 -12403526.331 8926830.141 10 0 59525 39600.00000 0 -21236989.297 -12879649.198 5890799.088 10 0 59525 40500.00000 0 -21747205.667 -13075933.809 2740579.279 10 0 59525 41400.00000 0 -21938474.980 -13028458.102 -462781.929 10 0 59525 42300.00000 0 -21778620.643 -12781872.612 -3657157.411 10 0 59525 43200.00000 0 -21247066.042 -12387305.804 -6780541.666 10 0 59525 44100.00000 0 -20335854.648 -11900005.132 -9772253.889 10 0 59525 45000.00000 0 -19050158.455 -11376813.264 -12574119.127 10 0 59525 45900.00000 0 -17408251.362 -10873586.197 -15131604.242 10 0 59525 46800.00000 0 -15440946.509 -10442662.774 -17394886.040 10 0 59525 47700.00000 0 -13190519.166 -10130493.221 -19319830.087 10 0 59525 48600.00000 0 -10709158.479 -9975527.923 -20868860.484 10 0 59525 49500.00000 0 -8057011.253 -10006456.801 -22011702.936 10 0 59525 50400.00000 0 -5299898.457 -10240875.012 -22725985.882 10 0 59525 51300.00000 0 -2506798.924 -10684432.691 -22997687.284 10 0 59525 52200.00000 0 252795.238 -11330506.024 -22821417.675 10 0 59525 53100.00000 0 2911541.309 -12160404.751 -22200533.284 10 0 59525 54000.00000 0 5406815.662 -13144108.396 -21147076.445 10 0 59525 54900.00000 0 7683083.221 -14241500.877 -19681543.920 10 0 59525 55800.00000 0 9693967.546 -15404051.792 -17832487.342 10 0 59525 56700.00000 0 11403935.236 -16576873.393 -15635953.371 10 0 59525 57600.00000 0 12789524.480 -17701066.054 -13134774.592 10 0 59525 58500.00000 0 13840067.014 -18716252.471 -10377725.386 10 0 59525 59400.00000 0 14557874.361 -19563192.617 -7418559.914 10 0 59525 60300.00000 0 14957882.121 -20186367.955 -4314951.927 10 0 59525 61200.00000 0 15066769.218 -20536424.698 -1127358.297 10 0 59525 62100.00000 0 14921591.474 -20572372.092 2082170.261 10 0 59525 63000.00000 0 14567989.485 -20263442.351 5251206.881 10 0 59525 63900.00000 0 14058048.741 -19590533.532 8318169.641 10 0 59525 64800.00000 0 13447904.366 -18547174.744 11223521.510 10 0 59525 65700.00000 0 12795193.274 -17139973.471 13910925.319 10 0 59525 66600.00000 0 12156462.333 -15388526.961 16328331.228 10 0 59525 67500.00000 0 11584642.348 -13324802.118 18428976.114 10 0 59525 68400.00000 0 11126694.196 -10992010.511 20172276.438 10 0 59525 69300.00000 0 10821525.530 -8443025.962 21524598.551 10 0 59525 70200.00000 0 10698264.622 -5738410.691 22459893.148 10 0 59525 71100.00000 0 10774962.595 -2944131.693 22960183.225 10 0 59525 72000.00000 0 11057777.216 -129061.372 23015897.676 10 0 59525 72900.00000 0 11540671.412 2637635.298 22626045.440 10 0 59525 73800.00000 0 12205638.405 5289120.547 21798227.795 10 0 59525 74700.00000 0 13023443.761 7763403.894 20548489.091 10 0 59525 75600.00000 0 13954853.466 10005660.235 18901008.838 10 0 59525 76500.00000 0 14952297.305 11970251.863 16887640.623 10 0 59525 77400.00000 0 15961898.826 13622372.213 14547305.974 10 0 59525 78300.00000 0 16925788.035 14939244.520 11925253.680 10 0 59525 79200.00000 0 17784601.052 15910826.592 9072197.562 10 0 59525 80100.00000 0 18480062.867 16539992.845 6043348.071 10 0 59525 81000.00000 0 18957545.447 16842186.333 2897355.158 10 0 59525 81900.00000 0 19168493.966 16844555.237 -304818.200 10 0 59525 82800.00000 0 19072618.857 16584609.743 -3501070.697 10 0 59525 83700.00000 0 18639760.709 16108455.371 -6629363.328 10 0 59525 84600.00000 0 17851348.168 15468676.699 -9628922.874 10 0 59525 85500.00000 0 16701385.852 14721960.379 -12441424.619 10 0 59526 0.00000 0 15196928.753 13926557.648 -15012130.807 10 0 59526 900.00000 0 13358020.102 13139693.138 -17290963.520 10 0 59526 1800.00000 0 11217095.131 12415030.805 -19233486.962 10 0 59526 2700.00000 0 8817870.861 11800303.199 -20801784.008 10 0 59526 3600.00000 0 6213768.386 11335206.038 -21965205.662 10 0 59526 4500.00000 0 3465931.342 11049647.558 -22700979.511 10 0 59526 5400.00000 0 640922.202 10962427.628 -22994664.363 10 0 59526 6300.00000 0 -2191808.299 11080403.458 -22840441.542 10 0 59526 7200.00000 0 -4962573.414 11398178.058 -22241236.448 10 0 59526 8100.00000 0 -7604113.881 11898325.380 -21208667.492 10 0 59526 9000.00000 0 -10054161.561 12552143.192 -19762822.820 10 0 59526 9900.00000 0 -12257795.962 13320902.106 -17931868.891 10 0 59526 10800.00000 0 -14169495.220 14157537.900 -15751498.345 10 0 59526 11700.00000 0 -15754795.878 15008715.156 -13264227.988 10 0 59526 12600.00000 0 -16991492.270 15817174.180 -10518560.995 10 0 59526 13500.00000 0 -17870326.090 16524260.945 -7568030.323 10 0 59526 14400.00000 0 -18395138.374 17072531.841 -4470142.881 10 0 59526 15300.00000 0 -18582479.135 17408321.849 -1285246.317 10 0 59526 16200.00000 0 -18460693.056 17484166.438 1924658.259 10 0 59526 17100.00000 0 -18068522.039 17260973.909 5097133.171 10 0 59526 18000.00000 0 -17453285.743 16709855.896 8170525.768 10 0 59526 18900.00000 0 -16668719.043 15813538.584 11085170.049 10 0 59526 19800.00000 0 -15772559.441 14567295.296 13784544.490 10 0 59526 20700.00000 0 -14823987.507 12979361.672 16216363.411 10 0 59526 21600.00000 0 -13881028.946 11070816.541 18333581.239 10 0 59526 22500.00000 0 -12998027.794 8874934.008 20095291.069 10 0 59526 23400.00000 0 -12223296.511 6436034.264 21467501.386 10 0 59526 24300.00000 0 -11597040.709 3807881.136 22423777.484 10 0 59526 25200.00000 0 -11149644.207 1051692.750 22945736.832 10 0 59526 26100.00000 0 -10900384.839 -1766152.746 23023390.366 10 0 59526 27000.00000 0 -10856633.313 -4576622.401 22655324.498 10 0 59526 27900.00000 0 -11013567.405 -7310642.419 21848721.306 10 0 59526 28800.00000 0 -11354412.606 -9901714.336 20619217.062 10 0 59526 29700.00000 0 -11851198.701 -12288427.052 18990601.927 10 0 59526 30600.00000 0 -12466000.707 -14416762.632 16994366.128 10 0 59526 31500.00000 0 -13152612.644 -16242101.926 14669100.653 10 0 59526 32400.00000 0 -13858584.811 -17730848.283 12059762.840 10 0 59526 33300.00000 0 -14527540.044 -18861602.923 9216819.766 10 0 59526 34200.00000 0 -15101672.668 -19625843.652 6195284.650 10 0 59526 35100.00000 0 -15524325.830 -20028078.889 3053663.675 10 0 59526 36000.00000 0 -15742539.242 -20085470.491 -147167.533 10 0 59526 36900.00000 0 -15709460.038 -19826940.804 -3345136.694 10 0 59526 37800.00000 0 -15386514.650 -19291800.946 -6478174.714 10 0 59526 38700.00000 0 -14745249.127 -18527957.385 -9485419.519 10 0 59526 39600.00000 0 -13768758.817 -17589771.827 -12308400.270 10 0 59526 40500.00000 0 -12452645.257 -16535664.168 -14892178.681 10 0 59526 41400.00000 0 -10805457.725 -15425559.402 -17186424.712 10 0 59526 42300.00000 0 -8848598.541 -14318286.199 -19146404.994 10 0 59526 43200.00000 0 -6615693.673 -13269037.175 -20733864.115 10 0 59526 44100.00000 0 -4151452.779 -12326998.434 -21917780.847 10 0 59526 45000.00000 0 -1510064.457 -11533249.036 -22674983.829 10 0 59526 45900.00000 0 1246807.800 -10919019.681 -22990614.022 10 0 59526 46800.00000 0 4052346.514 -10504384.789 -22858424.220 10 0 59526 47700.00000 0 6837121.785 -10297443.819 -22280909.101 10 0 59526 48600.00000 0 9531747.897 -10294026.904 -21269262.708 10 0 59526 49500.00000 0 12069544.244 -10477937.510 -19843163.638 10 0 59526 50400.00000 0 14389089.249 -10821721.936 -18030391.792 10 0 59526 51300.00000 0 16436560.464 -11287932.865 -15866283.968 10 0 59526 52200.00000 0 18167762.866 -11830832.940 -13393038.953 10 0 59526 53100.00000 0 19549760.445 -12398465.423 -10658886.084 10 0 59526 54000.00000 0 20562043.129 -12935003.124 -7717134.105 10 0 59526 54900.00000 0 21197180.884 -13383274.851 -4625119.788 10 0 59526 55800.00000 0 21460938.664 -13687361.006 -1443078.035 10 0 59526 56700.00000 0 21371849.088 -13795147.131 1767043.255 10 0 59526 57600.00000 0 20960262.755 -13660726.194 4942799.183 10 0 59526 58500.00000 0 20266918.335 -13246547.186 8022469.786 10 0 59526 59400.00000 0 19341094.841 -12525218.763 10946263.246 10 0 59526 60300.00000 0 18238425.824 -11480891.655 13657476.471 10 0 59526 61200.00000 0 17018469.129 -10110161.829 16103590.340 10 0 59526 62100.00000 0 15742135.481 -8422456.754 18237278.796 10 0 59526 63000.00000 0 14469084.409 -6439888.988 20017313.136 10 0 59526 63900.00000 0 13255196.642 -4196583.618 21409345.149 10 0 59526 64800.00000 0 12150228.187 -1737507.725 22386555.539 10 0 59526 65700.00000 0 11195743.031 883149.560 22930156.725 10 0 59526 66600.00000 0 10423409.454 3603979.589 23029741.856 10 0 59526 67500.00000 0 9853729.457 6358657.223 22683474.702 10 0 59526 68400.00000 0 9495252.773 9078450.276 21898117.750 10 0 59526 69300.00000 0 9344306.969 11694833.008 20688898.563 10 0 59526 70200.00000 0 9385253.897 14142097.279 19079217.064 10 0 59526 71100.00000 0 9591261.248 16359855.091 17100199.019 10 0 59526 72000.00000 0 9925556.838 18295330.383 14790103.531 10 0 59526 72900.00000 0 10343113.392 19905346.488 12193594.922 10 0 59526 73800.00000 0 10792693.797 21157927.783 9360891.698 10 0 59526 74700.00000 0 11219171.657 22033449.463 6346807.797 10 0 59526 75600.00000 0 11566030.268 22525287.793 3209703.342 10 0 59526 76500.00000 0 11777935.345 22639943.569 10364.119 10 0 59526 77400.00000 0 11803273.283 22396633.184 -3189169.258 10 0 59526 78300.00000 0 11596547.622 21826363.813 -6326800.331 10 0 59526 79200.00000 0 11120531.894 20970530.828 -9341580.896 10 0 59526 80100.00000 0 10348086.739 19879095.639 -12174896.661 10 0 59526 81000.00000 0 9263562.944 18608420.019 -14771611.131 10 0 59526 81900.00000 0 7863729.123 17218847.585 -17081144.988 10 0 59526 82800.00000 0 6158182.683 15772134.068 -19058469.256 10 0 59526 83700.00000 0 4169224.266 14328834.558 -20664992.256 10 0 59526 84600.00000 0 1931198.512 12945757.936 -21869322.355 10 0 59526 85500.00000 0 -510673.440 11673596.095 -22647890.857 10 0 59527 0.00000 0 -3101922.551 10554828.292 -22985422.216 10 0 59527 900.00000 0 -5780856.452 9621988.822 -22875241.796 10 0 59527 1800.00000 0 -8480892.917 8896372.880 -22319414.160 10 0 59527 2700.00000 0 -11133110.128 8387233.439 -21328709.187 10 0 59527 3600.00000 0 -13668904.033 8091504.645 -19922395.649 10 0 59527 4500.00000 0 -16022643.091 7994062.624 -18127866.114 10 0 59527 5400.00000 0 -18134208.977 8068512.344 -15980100.303 10 0 59527 6300.00000 0 -19951316.753 8278466.528 -13520977.366 10 0 59527 7200.00000 0 -21431517.002 8579261.478 -10798450.861 10 0 59527 8100.00000 0 -22543796.121 8920035.899 -7865603.156 10 0 59527 9000.00000 0 -23269707.949 9246083.172 -4779598.551 10 0 59527 9900.00000 0 -23603989.908 9501375.895 -1600556.758 10 0 59527 10800.00000 0 -23554639.006 9631154.173 1609630.064 10 0 59527 11700.00000 0 -23142446.066 9584466.663 4788512.393 10 0 59527 12600.00000 0 -22400009.642 9316555.702 7874305.618 10 0 59527 13500.00000 0 -21370273.154 8790984.859 10807094.809 10 0 59527 14400.00000 0 -20104648.686 7981418.629 13529998.028 10 0 59527 15300.00000 0 -18660808.084 6872979.184 15990265.388 10 0 59527 16200.00000 0 -17100235.396 5463123.230 18140292.935 10 0 59527 17100.00000 0 -15485644.065 3762002.490 19938532.580 10 0 59527 18000.00000 0 -13878367.244 1792293.054 21350281.600 10 0 59527 18900.00000 0 -12335829.921 -411499.064 22348338.020 10 0 59527 19800.00000 0 -10909207.419 -2804227.327 22913510.802 10 0 59527 20700.00000 0 -9641366.585 -5331739.846 23034976.565 10 0 59527 21600.00000 0 -8565173.759 -7932893.252 22710477.342 10 0 59527 22500.00000 0 -7702238.254 -10541862.864 21946356.595 10 0 59527 23400.00000 0 -7062142.053 -13090654.831 20757433.375 10 0 59527 24300.00000 0 -6642186.374 -15511717.826 19166717.224 10 0 59527 25200.00000 0 -6427664.622 -17740547.831 17204968.920 10 0 59527 26100.00000 0 -6392649.725 -19718179.588 14910114.815 10 0 59527 27000.00000 0 -6501262.702 -21393462.755 12326524.979 10 0 59527 27900.00000 0 -6709369.498 -22725029.344 9504167.800 10 0 59527 28800.00000 0 -6966635.332 -23682871.150 6497656.058 10 0 59527 29700.00000 0 -7218850.770 -24249461.731 3365201.678 10 0 59527 30600.00000 0 -7410432.016 -24420375.877 167498.204 10 0 59527 31500.00000 0 -7486990.408 -24204380.137 -3033448.068 10 0 59527 32400.00000 0 -7397862.663 -23622989.938 -6175516.192 10 0 59527 33300.00000 0 -7098494.550 -22709510.861 -9197674.927 10 0 59527 34200.00000 0 -6552576.414 -21507603.362 -12041169.779 10 0 59527 35100.00000 0 -5733838.933 -20069430.383 -14650669.400 10 0 59527 36000.00000 0 -4627431.489 -18453464.937 -16975348.564 10 0 59527 36900.00000 0 -3230822.868 -16722049.318 -18969885.939 10 0 59527 37800.00000 0 -1554183.953 -14938808.276 -20595356.610 10 0 59527 38700.00000 0 379766.170 -13166024.757 -21820001.217 10 0 59527 39600.00000 0 2536446.583 -11462088.696 -22619855.980 10 0 59527 40500.00000 0 4870606.750 -9879126.300 -22979230.622 10 0 59527 41400.00000 0 7327976.523 -8460909.728 -22891024.199 10 0 59527 42300.00000 0 9847306.187 -7241135.370 -22356871.972 10 0 59527 43200.00000 0 12362712.215 -6242143.260 -21387119.895 10 0 59527 44100.00000 0 14806231.164 -5474131.476 -20000626.664 10 0 59527 45000.00000 0 17110474.898 -4934898.369 -18224396.801 10 0 59527 45900.00000 0 19211275.916 -4610122.918 -16093051.770 10 0 59527 46800.00000 0 21050211.628 -4474170.451 -13648149.407 10 0 59527 47700.00000 0 22576901.362 -4491388.566 -10937365.332 10 0 59527 48600.00000 0 23750979.453 -4617836.935 -8013552.900 10 0 59527 49500.00000 0 24543661.596 -4803376.127 -4933700.889 10 0 59527 50400.00000 0 24938838.876 -4994025.225 -1757810.423 10 0 59527 51300.00000 0 24933654.278 -5134486.580 1452285.686 10 0 59527 52200.00000 0 24538538.545 -5170729.105 4634136.990 10 0 59527 53100.00000 0 23776705.347 -5052519.341 7725897.855 10 0 59527 54000.00000 0 22683128.781 -4735792.137 10667533.681 10 0 59527 54900.00000 0 21303047.924 -4184760.031 13401986.843 10 0 59527 55800.00000 0 19690062.975 -3373672.047 15876279.490 10 0 59527 56700.00000 0 17903904.240 -2288147.831 18042532.191 10 0 59527 57600.00000 0 16007968.349 -926031.239 19858879.494 10 0 59527 58500.00000 0 14066725.199 702272.032 21290265.805 10 0 59527 59400.00000 0 12143103.696 2573986.660 22309107.730 10 0 59527 60300.00000 0 10295964.515 4654681.658 22895811.670 10 0 59527 61200.00000 0 8577763.912 6899476.474 23039138.252 10 0 59527 62100.00000 0 7032504.112 9254689.641 22736407.952 10 0 59527 63000.00000 0 5694053.666 11659862.468 21993545.015 10 0 59527 63900.00000 0 4584905.772 14050074.938 20824959.450 10 0 59527 64800.00000 0 3715424.447 16358459.319 19253269.544 10 0 59527 65700.00000 0 3083608.508 18518808.855 17308869.903 10 0 59527 66600.00000 0 2675382.115 20468174.732 15029352.644 10 0 59527 67500.00000 0 2465399.093 22149345.017 12458791.842 10 0 59527 68400.00000 0 2418327.141 23513103.567 9646903.760 10 0 59527 69300.00000 0 2490558.228 24520175.551 6648097.800 10 0 59527 70200.00000 0 2632273.633 25142778.706 3520435.238 10 0 59527 71100.00000 0 2789777.122 25365715.369 324514.747 10 0 59527 72000.00000 0 2907998.346 25186959.115 -2877694.445 10 0 59527 72900.00000 0 2933060.907 24617710.477 -6024049.721 10 0 59527 73800.00000 0 2814806.439 23681918.354 -9053439.613 10 0 59527 74700.00000 0 2509167.480 22415285.939 -11906972.158 10 0 59527 75600.00000 0 1980287.725 20863801.716 -14529123.753 10 0 59527 76500.00000 0 1202298.618 19081856.118 -16868825.681 10 0 59527 77400.00000 0 160675.405 17130022.082 -18880466.491 10 0 59527 78300.00000 0 -1146886.747 15072592.025 -20524790.057 10 0 59527 79200.00000 0 -2710115.796 12974974.231 -21769671.112 10 0 59527 80100.00000 0 -4506342.414 10901057.763 -22590752.369 10 0 59527 81000.00000 0 -6501210.785 8910656.478 -22971930.110 10 0 59527 81900.00000 0 -8649892.819 7057139.450 -22905678.115 10 0 59527 82800.00000 0 -10898756.393 5385347.433 -22393202.875 10 0 59527 83700.00000 0 -13187418.946 3929882.850 -21444426.549 10 0 59527 84600.00000 0 -15451101.130 2713845.022 -20077797.394 10 0 59527 85500.00000 0 -17623182.134 1748063.537 -18319931.045 10 0 59528 0.00000 0 -19637849.383 1030861.427 -16205089.606 10 0 59528 900.00000 0 -21432732.173 548356.856 -13774507.512 10 0 59528 1800.00000 0 -22951405.544 275290.263 -11075580.603 10 0 59528 2700.00000 0 -24145662.339 176339.185 -8160930.956 10 0 59528 3600.00000 0 -24977454.872 207864.370 -5087369.374 10 0 59528 4500.00000 0 -25420425.541 320010.962 -1914775.828 10 0 59528 5400.00000 0 -25460962.091 459073.850 1295078.906 10 0 59528 6300.00000 0 -25098733.801 570025.148 4479746.207 10 0 59528 7200.00000 0 -24346687.071 599095.104 7577322.251 10 0 59528 8100.00000 0 -23230502.000 496295.898 10527655.620 10 0 59528 9000.00000 0 -21787534.272 217780.618 13273515.834 10 0 59528 9900.00000 0 -20065288.401 -272062.661 15761699.822 10 0 59528 10800.00000 0 -18119487.651 -998870.170 17944055.244 10 0 59528 11700.00000 0 -16011822.474 -1976988.165 19778401.600 10 0 59528 12600.00000 0 -13807472.136 -3208639.931 21229332.417 10 0 59528 13500.00000 0 -11572502.915 -4683608.561 22268884.500 10 0 59528 14400.00000 0 -9371250.635 -6379448.541 22877062.906 10 0 59528 15300.00000 0 -7263795.354 -8262217.212 23042213.080 10 0 59528 16200.00000 0 -5303631.568 -10287695.945 22761234.371 10 0 59528 17100.00000 0 -3535628.798 -12403050.873 22039631.886 10 0 59528 18000.00000 0 -1994365.349 -14548865.123 20891406.345 10 0 59528 18900.00000 0 -702902.459 -16661459.417 19338784.233 10 0 59528 19800.00000 0 327951.939 -18675406.127 17411793.150 10 0 59528 20700.00000 0 1099860.544 -20526133.789 15147689.880 10 0 59528 21600.00000 0 1626647.135 -22152515.164 12590251.145 10 0 59528 22500.00000 0 1933473.647 -23499332.252 9788939.460 10 0 59528 23400.00000 0 2055538.526 -24519516.440 6797958.989 10 0 59528 24300.00000 0 2036350.883 -25176070.506 3675218.307 10 0 59528 25200.00000 0 1925652.764 -25443591.949 481218.985 10 0 59528 26100.00000 0 1777076.685 -25309333.482 -2722109.220 10 0 59528 27000.00000 0 1645637.007 -24773755.282 -5872604.576 10 0 59528 27900.00000 0 1585161.073 -23850544.582 -8909078.063 10 0 59528 28800.00000 0 1645768.993 -22566100.281 -11772503.047 10 0 59528 29700.00000 0 1871509.340 -20958502.789 -14407166.529 10 0 59528 30600.00000 0 2298251.831 -19076010.872 -16761759.185 10 0 59528 31500.00000 0 2951927.545 -16975147.397 -18790382.232 10 0 59528 32400.00000 0 3847192.815 -14718453.214 -20453450.950 10 0 59528 33300.00000 0 4986575.275 -12372002.607 -21718476.511 10 0 59528 34200.00000 0 6360140.157 -10002783.999 -22560710.112 10 0 59528 35100.00000 0 7945693.084 -7676055.374 -22963636.196 10 0 59528 36000.00000 0 9709512.800 -5452785.083 -22919304.428 10 0 59528 36900.00000 0 11607584.751 -3387285.306 -22428493.274 10 0 59528 37800.00000 0 13587285.029 -1525137.282 -21500701.419 10 0 59528 38700.00000 0 15589444.953 98504.830 -20153966.605 10 0 59528 39600.00000 0 17550709.971 1460160.509 -18414515.092 10 0 59528 40500.00000 0 19406093.938 2548768.094 -16316248.310 10 0 59528 41400.00000 0 21091621.158 3365898.219 -13900076.731 10 0 59528 42300.00000 0 22546944.540 3925427.625 -11213114.264 10 0 59528 43200.00000 0 23717829.160 4252688.717 -8307749.471 10 0 59528 44100.00000 0 24558396.095 4383132.589 -5240612.527 10 0 59528 45000.00000 0 25033031.595 4360564.051 -2071459.232 10 0 59528 45900.00000 0 25117881.116 4235025.483 1138004.940 10 0 59528 46800.00000 0 24801865.480 4060421.124 4325336.604 10 0 59528 47700.00000 0 24087177.026 3891984.289 7428577.162 10 0 59528 48600.00000 0 22989235.809 3783696.266 10387461.703 10 0 59528 49500.00000 0 21536108.903 3785767.254 13144590.021 10 0 59528 50400.00000 0 19767418.489 3942286.484 15646536.696 10 0 59528 51300.00000 0 17732785.739 4289140.964 17844879.050 10 0 59528 52200.00000 0 15489876.610 4852290.406 19697123.786 10 0 59528 53100.00000 0 13102131.839 5646470.474 21167515.458 10 0 59528 54000.00000 0 10636275.893 6674378.235 22227712.625 10 0 59528 54900.00000 0 8159708.146 7926373.459 22857320.192 10 0 59528 55800.00000 0 5737883.806 9380707.860 23044269.228 10 0 59528 56700.00000 0 3431791.877 11004272.683 22785038.350 10 0 59528 57600.00000 0 1295632.970 12753833.773 22084713.507 10 0 59528 58500.00000 0 -625208.645 14577703.354 20956885.665 10 0 59528 59400.00000 0 -2295816.687 16417779.952 19423388.633 10 0 59528 60300.00000 0 -3692951.571 18211872.865 17513881.743 10 0 59528 61200.00000 0 -4805767.527 19896215.773 15265284.837 10 0 59528 62100.00000 0 -5636009.603 21408066.153 12721075.372 10 0 59528 63000.00000 0 -6197683.256 22688283.409 9930460.002 10 0 59528 63900.00000 0 -6516210.761 23683778.907 6947435.343 10 0 59528 64800.00000 0 -6627109.949 24349735.956 3829754.768 10 0 59528 65700.00000 0 -6574250.636 24651506.962 637820.126 10 0 59528 66600.00000 0 -6407761.795 24566107.652 -2566480.988 10 0 59528 67500.00000 0 -6181677.434 24083244.855 -5720970.462 10 0 59528 68400.00000 0 -5951420.328 23205833.428 -8764384.462 10 0 59528 69300.00000 0 -5771230.008 21949978.969 -11637564.340 10 0 59528 70200.00000 0 -5691644.100 20344425.366 -14284610.249 10 0 59528 71100.00000 0 -5757140.274 18429488.619 -16653974.623 10 0 59528 72000.00000 0 -6004039.581 16255520.063 -18699473.542 10 0 59528 72900.00000 0 -6458761.228 13880962.047 -20381195.676 10 0 59528 73800.00000 0 -7136504.209 11370076.312 -21666290.402 10 0 59528 74700.00000 0 -8040413.265 8790439.478 -22529618.937 10 0 59528 75600.00000 0 -9161266.262 6210309.820 -22954255.146 10 0 59528 76500.00000 0 -10477698.010 3695975.176 -22931825.537 10 0 59528 77400.00000 0 -11956952.723 1309192.866 -22462681.135 10 0 59528 78300.00000 0 -13556134.814 -895171.420 -21555897.310 10 0 59528 79200.00000 0 -15223906.394 -2871207.003 -20229101.005 10 0 59528 80100.00000 0 -16902560.599 -4583637.619 -18508128.342 10 0 59528 81000.00000 0 -18530383.666 -6009046.886 -16426519.073 10 0 59528 81900.00000 0 -20044206.121 -7136599.152 -14024857.699 10 0 59528 82800.00000 0 -21382035.067 -7968226.404 -11349974.414 10 0 59528 83700.00000 0 -22485655.979 -8518274.875 -8454022.019 10 0 59528 84600.00000 0 -23303093.581 -8812627.986 -5393447.582 10 0 59528 85500.00000 0 -23790827.301 -8887344.652 -2227880.086 99